Regional Weather Roundup
Issued by NWS

Home | Current Version | Previous Version | Graphics & Text | Print | Product List | Glossary On
Versions: 1 2 3 4 5 6 7 8 9 10 11 12 13 14 15 16 17 18 19 20 21 22 23 24 25 26 27 28 29 30 31 32 33 34 35 36 37 38 39 40 41 42 43 44 45 46 47 48 49 50
000
ASUS45 KABQ 221910
RWRNM
WEATHER ROUNDUP FOR NEW MEXICO
NATIONAL WEATHER SERVICE ALBUQUERQUE NM
100 PM MDT WED OCT 22 2014

NOTE: "FAIR" MEANS FEW OR NO CLOUDS BELOW 12,000 FEET AGL WITH NO
       SIGNIFICANT WEATHER OR OBSTRUCTIONS TO VISION.

      THIS PRODUCT IS RELEASED AS TWO VERSIONS.  ONE VERSION NEAR
      THE TOP OF THE HOUR CONTAINING PRELIMINARY DATA FROM ALBUQUERQUE
      AND OTHER STATIONS.  A FINAL VERSION WITH ADDITIONAL DATA IS
      ISSUED ABOUT 10 MINUTES AFTER THE HOUR.

NMZ501-503-504-510>518-222000-
NORTHWEST PLATEAU/NORTHCENTRAL MOUNTAINS

CITY           SKY/WX    TMP DP  RH WIND       PRES   REMARKS
FARMINGTON     SUNNY     65  41  41 VRB3      30.17F
LOS ALAMOS     MOSUNNY   59  42  52 NE3       30.26F
SANTA FE       PTSUNNY   66  45  46 W6        30.20F
TAOS           PTSUNNY   61  37  41 NW5       30.24F
ANGEL FIRE     FAIR      59  31  34 W14       30.28F

$$
NMZ402-403-502-505>509-222000-
WESTCENTRAL MOUNTAINS/SOUTHWEST MOUNTAINS

CITY           SKY/WX    TMP DP  RH WIND       PRES   REMARKS
GALLUP         MOSUNNY   65  40  39 SW7       30.23F
GRANTS         MOSUNNY   66  36  32 N3        30.24F
SILVER CITY    SUNNY     66  50  55 S7        30.22F

$$
NMZ407-409-411-412-222000-
SOUTHERN DESERTS

CITY           SKY/WX    TMP DP  RH WIND       PRES   REMARKS
LORDSBURG      FAIR      72  54  53 MISG      30.14F
DEMING         SUNNY     71  54  54 E7        30.15F
LAS CRUCES     SUNNY     69  54  58 E5        30.16F
HOLLOMAN AFB   SUNNY     70  56  60 S7        30.13F
T OR C         SUNNY     69  51  52 E3        30.16F

$$
NMZ519>523-222000-
CENTRAL VALLEYS/CENTRAL HIGHLANDS

CITY           SKY/WX    TMP DP  RH WIND       PRES   REMARKS
ALBUQUERQUE    MOSUNNY   68  46  45 CALM      30.19F
DOUBLE EAGLE   MOSUNNY   66  46  48 CALM      30.21F
MORIARTY ARPT  MOCLDY    68  45  43 CALM      30.21F
CLINES CORNERS MOSUNNY   63  41  44 NW10      30.22F
BELEN          FAIR      70  46  42 E5        30.18F
SOCORRO        FAIR      71  50  47 CALM      30.16F

$$
NMZ524>526-539-540-222000-
SOUTHCENTRAL MOUNTAINS

CITY           SKY/WX    TMP DP  RH WIND       PRES   REMARKS
RUIDOSO        SUNNY     63  45  51 MISG      30.26F

$$
NMZ527>531-222000-
NORTHEAST HIGHLANDS/NORTHEAST PLAINS

CITY           SKY/WX    TMP DP  RH WIND       PRES   REMARKS
LAS VEGAS      SUNNY     66  36  32 E5        30.19F
RATON          SUNNY     68  35  29 NE5       30.14F
CLAYTON        MOSUNNY   70  40  33 N7        30.08F

$$
NMZ532>537-222000-
EASTCENTRAL PLAINS

CITY           SKY/WX    TMP DP  RH WIND       PRES   REMARKS
TUCUMCARI      MOSUNNY   74  52  46 SW15G23   30.06F
CANNON AFB     MOSUNNY   68  54  60 SW10G17   30.12F
CLOVIS AIRPORT PTSUNNY   68  54  60 SW9       30.14F

$$
NMZ028-029-538-222000-
SOUTHEAST PLAINS

CITY           SKY/WX    TMP DP  RH WIND       PRES   REMARKS
ROSWELL        MOSUNNY   70  58  65 SE9       30.11F
CARLSBAD       MOSUNNY   71  59  65 E3        30.09F
HOBBS          PTSUNNY   68  57  68 S5        30.14F


$$



USA.gov is the U.S. government's official web portal to all federal, state and local government web resources and services.